Regional Weather Roundup
Issued by NWS

Home | Current Version | Previous Version | Text Only | Print | Product List | Glossary On
Versions: 1 2 3 4 5 6 7 8 9 10 11 12 13 14 15 16 17 18 19 20 21 22 23 24 25 26 27 28 29 30 31 32 33 34 35 36 37 38 39 40 41 42 43 44 45 46 47 48 49 50
000
ASUS43 KMKX 310800
RWRWI

WISCONSIN REGIONAL WEATHER ROUNDUP
NATIONAL WEATHER SERVICE MILWAUKEE/SULLIVAN WI
300 AM CDT MON AUG 31 2015

NOTE: "FAIR" INDICATES FEW OR NO CLOUDS BELOW 12,000 FEET WITH NO
SIGNIFICANT WEATHER AND/OR OBSTRUCTIONS TO VISIBILITY.

WIZ001-002-006>008-014>016-023>028-310900-
NORTHWEST WISCONSIN

CITY           SKY/WX    TMP DP  RH WIND       PRES   REMARKS
SUPERIOR ARPT  MOCLDY    64  64  98 SW5       29.88S
ASHLAND        PTCLDY    65  65 100 S7        29.92R
HAYWARD        MOCLDY    64  62  93 S8        29.96R
SIREN          PTCLDY    65  64  94 S6        29.93S
CUMBERLAND     MOCLDY    59  59 100 S5        29.97R FOG
RICE LAKE      PTCLDY    60  58  94 SE6       29.98S FOG
CHETEK         PTCLDY   N/A N/A N/A E3        29.98R
LADYSMITH      FOG       64  63  96 S5        30.01R VSB 1
EAU CLAIRE     NOT AVBL
MENOMONIE      FOG       59  59  99 SE6       29.98S VSB 1/2
NEW RICHMOND   CLEAR     62  62  99 S6        29.95F
OSCEOLA        CLEAR     63  63 100 S6        29.97S
$$

WIZ003>005-009-010-017-018-310900-
NORTH CENTRAL WISCONSIN

CITY           SKY/WX    TMP DP  RH WIND       PRES   REMARKS
MANITOWISH WTR CLOUDY    64  64 100 SW6       29.99R
ARBOR VITAE    CLOUDY    63  62  97 SW5       30.00S FOG
WOODRUFF       CLOUDY    63  62  97 SW5       30.00S FOG
RHINELANDER    FOG       63  62  97 SW6       30.02R VSB 1
EAGLE RIVER    CLOUDY    64  64  99 SW9       29.99S
LAND O LAKES   CLOUDY    64  64  97 SW3       30.00R
PHILLIPS       CLOUDY    64  64 100 SW8       29.99S
TOMAHAWK       CLOUDY    62  61  97 CALM      30.01S FOG
MEDFORD        FOG       61  61 100 SW5       30.02R VSB 1/4
MERRILL        CLOUDY    62  62 100 SW3       30.02S FOG
$$

WIZ029-030-035-036-043>047-310900-
CENTRAL WISCONSIN

CITY           SKY/WX    TMP DP  RH WIND       PRES   REMARKS
WAUSAU         CLEAR     64  62  93 SW10      30.00S
MOSINEE        FOG       59  59 100 SW3       30.02S VSB 1/2
MARSHFIELD     FOG       61  58  90 SW3       30.01S VSB 1/4
STEVENS POINT  FOG       59  59 100 CALM      30.02R VSB 1
WAUPACA        FOG       59  58  97 CALM      30.01S VSB 1/4
WAUTOMA        FOG       61  61 100 CALM      30.02S VSB 1/4
WISC RAPIDS    CLEAR     61  59  94 SW3       30.03R FOG
CAMP DOUGLAS   FOG       54  54 100 SE1       30.01S VSB 1/4
$$

WIZ011>013-019>022-031-037>040-048>050-310900-
NORTHEAST WISCONSIN

CITY           SKY/WX    TMP DP  RH WIND       PRES   REMARKS
ANTIGO         FOG       57  57 100 W3        30.02S VSB 1/4
SHAWANO        CLEAR     64  63  95 CALM      30.00R
OCONTO         CLEAR     60  60 100 SW3       29.99R
STURGEON BAY   CLEAR     64  59  82 SW7       30.01S
GREEN BAY      CLEAR     63  61  93 SW5       30.00S FOG
MANITOWOC      PTCLDY    59  59 100 MISG      30.01S FOG
APPLETON       CLEAR     63  63 100 SW7       30.00R
CLINTONVILLE   FOG       59  59 100 SW5       30.01R VSB 1
OSHKOSH        CLEAR     62  60  93 SW3       30.01R
$$

WIZ032>034-041-042-053>061-310900-
SOUTHWEST WISCONSIN

CITY           SKY/WX    TMP DP  RH WIND       PRES   REMARKS
LA CROSSE      PTCLDY    63  62  97 S6        30.00S FOG
SPARTA         PTCLDY    55  53  95 CALM      30.01F
VIROQUA          N/A     61  61 100 CALM      30.03S
BOSCOBEL       FOG       59  58  96 CALM      30.02S VSB 1/4
PRAIRIE DU CHI CLOUDY    60  58  96 SE3       30.01F FOG
PLATTEVILLE    CLEAR     62  62 100 S5        30.03S
$$

WIZ056-057-062-063-064-067-068-310900-
SOUTH CENTRAL WISCONSIN

CITY           SKY/WX    TMP DP  RH WIND       PRES   REMARKS
REEDSBURG      CLEAR     60  60  99 CALM      30.02S
BARABOO/DELLS  FOG       59  58  95 CALM      30.02S VSB 1/2
LONE ROCK      FOG       57  57 100 CALM      30.03S VSB 1/2
MINERAL POINT  CLEAR     63  63 100 S5        30.04S FOG
MADISON        FOG       61  60  97 CALM      30.02S VSB 1/2
MIDDLETON      CLOUDY    58  58 100 CALM      30.03S VSB 1/4
WATERTOWN      MOCLDY    56  56 100 CALM      30.03R
MONROE           N/A     61  59  94 SW7       30.03S FOG
JANESVILLE     FOG       61  59  94 CALM      30.02S VSB 1/4
$$

WIZ051-052-058>065-066-070>072-310900-
SOUTHEAST WISCONSIN

CITY           SKY/WX    TMP DP  RH WIND       PRES   REMARKS
MILWAUKEE      CLEAR     61  60  97 SW6       30.03R FOG
WAUKESHA       CLEAR     59  59 100 SW3       30.04R
MILWAUKEE/TIMM CLEAR     59  55  88 CALM      30.03S FOG
RACINE         CLEAR     61  59  93 SW3       30.05R FOG
BURLINGTON     FOG       54  54  99 CALM      30.03R VSB 1/4
KENOSHA        FOG       59  58  96 S3        30.04R VSB 1/4
FOND DU LAC    CLEAR     61  60  97 CALM      30.02R FOG
SHEBOYGAN      CLEAR     58  58 100 SW5       30.01S FOG
WEST BEND      FOG       57  55  94 CALM      30.02S VSB 1/2
JUNEAU         FOG       58  58  99 CALM      30.04S VSB<1/4
$$

LSZ147-162-310900-
LAKE SUPERIOR

STATION/POSITION TIME  TEMP    WIND        PRES    WAVE
                       AIR SEA DIR/SP/G            HT/PER
                 (UTC) (F)     (DEG/KT/KT) (MB)    (FT/S)
W MID LAKE BUOY  0650   60 54  210/ 10/ 10 1012.0R   1
DEVILS ISLAND    0700   67     200/  4/  5 1011.9S
PORT WING        0740   67     190/  5/  7 1012.2F
SAXON HARBOR     0700   68      CALM  /  7 1012.2
$$

LMZ867-665-643>646-310900-
LAKE MICHIGAN

STATION/POSITION TIME  TEMP    WIND        PRES    WAVE
                       AIR SEA DIR/SP/G            HT/PER
                 (UTC) (F)     (DEG/KT/KT) (MB)    (FT/S)
CHAMBERS ISLAND  0700   64     180/  7/ 11 1014.9S
S GREEN BAY BUOY 0600   65 63  200/  8/ 10 1016.6
N MID LAKE BUOY  0650   64 65  210/ 14/ 16 1014.3F   3/ 5
NORTHPORT PIER   0702   62     130/  1/  5 1014.6S
SHEBOYGAN LAKESH 0700   62     220/  4/  4 1016.4F
PORT WASHINGTON  0700   55      CALM  /  1 1016.9F
ATWATER BUOY     0700   56 50  170/  6/  6 1017.9F
MILWAUKEE LAKESH 0700   64     200/  5/  6   N/A
S MID LAKE BUOY  0650   68 68  180/  8/  8 1016.5F   0
KENOSHA   LAKESH 0700   64     210/  6/  7 1016.6F
$$

TC  - TEMPERATURE IN CELSIUS
VSB - VISIBILITY IN STATUTE MILES
WCI - WIND CHILL INDEX
HX  - HEAT INDEX



USA.gov is the U.S. government's official web portal to all federal, state and local government web resources and services.